Location: Ottawa
(45.4170°N, 75.7000°W)
Time: 17:41:03
(UTC-05:00)

ISS - Visible Passes

Search period start: 22 February 2018 00:00
Search period end: 04 March 2018 00:00
Orbit: 402 x 407 km, 51.6° (Epoch: 23 February)

Date Brightness Start Highest point End Pass type
(mag) Time Alt. Az. Time Alt. Az. Time Alt. Az.
25 Feb -0.7 05:52:31 10° SSE 05:54:03 13° SE 05:55:35 10° ESE visible
27 Feb -1.8 05:42:51 10° SSW 05:45:41 27° SE 05:48:30 10° E visible
28 Feb -1.1 04:51:44 11° S 04:53:34 16° SE 04:55:38 10° E visible
01 Mar -3.3 05:34:40 14° SW 05:37:23 58° SE 05:40:37 10° ENE visible
02 Mar -2.5 04:44:45 31° SSE 04:45:10 33° SE 04:48:08 10° ENE visible
03 Mar -0.7 03:54:43 13° E 03:54:43 13° E 03:55:24 10° E visible
03 Mar -3.8 05:27:22 24° WSW 05:29:10 70° NNW 05:32:27 10° ENE visible
